User: anonymous   Login
Location: Twentynine Palms Airport
(34.1316°N, 115.9458°W)
Time: 10:36:56
(UTC-07:00)
Language:

Oscar 19 - Orbit

View from above orbital plane
View from above orbital plane
View from above satellite
View from above satellite

Ground track
Ground track

The orbit data is extracted from the following two-line orbital elements,

1 20442U 90005G   16145.04312217  .00000036  00000-0  29117-4 0  9996
2 20442  98.5426  80.3223 0011024 213.0478 147.0019 14.32816267375893
Epoch (UTC): 24 May 2016 01:02:05
Eccentricity: 0.0011024
inclination: 98.5426°
perigee height: 774 km
apogee height: 790 km
right ascension of ascending node: 80.3223°
argument of perigee: 213.0478°
revolutions per day: 14.32816267
mean anomaly at epoch: 147.0019°
orbit number at epoch: 37589

The dashed part of the orbit path shows where the satellite is in the earth's shadow,  

DLR